DELTA 1 DEB, 12274

Orbit data source: Space-Track

DELTA 1 DEB, 12274 is space debris in SSO originally from a launch on Thu, 29 Jul 1976 UTC launched from the Air Force Western Test Range (AFWTR). Debris objects in space refer to the collection of defunct objects orbiting the Earth. Examples of debris include non-operational satellites, rocket bodies, and fragments generated from explosions, collisions, or faulty payload assembly.

Loading next visibility...
Identifier
12274, 1976-077DF
Orbit
SSO
Country
Flag of USUS
Related business
Manufacturer
Unknown
Mission
Spacecraft
Bus & Motor
Unknown
Mass
Unknown
Launch date (UTC)
1976-07-29 (49 years ago)
Launch vehicle
Unknown
Launch site
Air Force Western Test Range (AFWTR)
Object type
Payload
Rocket body
Debris
Shape & HBR
Unknown shape, 0.1 m
Radar Cross Section
Small (<0.1 m²)

Expand to show TLE details & history
Last TLE update: 23 hours ago

TLE from 23 hours ago
0 DELTA 1 DEB
1 12274U 76077DF  26022.85321245 -.00000012  00000-0  30601-3 0  9992
2 12274 102.3697 349.3061 0106107 273.2440 113.0122 12.22289000  6180
Epoch: 2026-01-22T20:28Z
TLE epoch observation values (Epoch: 2026-01-22T20:28:37.555Z)
Latitude
26.71853°
Longitude
-86.35793°
Altitude
1,619.274 km
Speed
7.048 km/s
True Right ascension
22h 51m 59s
True Declination
26° 35' 44"
Sunlit
Object was in daylight at epoch
Visualization orbit readout
Latitude
Unknown
Longitude
Unknown
Altitude
Unknown
Speed
Unknown
Apparent Right ascension
Unknown
Apparent Declination
Unknown
Sunlit
N/A
Visualization observer readout
Local Sidereal Time
21:05:53
Azimuth
Unknown
Elevation
Unknown
Doppler factor
Unknown
Orbital elements
Apogee altitude
1,664.65 km
Perigee altitude
1,495.763 km
Semi-major axis
7,958.344 km
Eccentricity
0.01061
Inclination
102.3697°
RAAN
349.3061°
Arg. of periapsis
273.244°
True anomaly
114.12549°
Mean anomaly
113.0122°
Eccentric anomaly
113.56943°
Mean motion
3.0571 °/min
Orbital period
117.76 mins
BSTAR
0.00030601
Loading maneuver chart data...
Computing Atmospheric mass density...
Loading historical data...
Loading historical data...
Loading historical data...
Loading historical data...
Loading historical data...
Loading historical data...
Loading historical data...

Documentation

Showing up to 5 results
|